Miscellaneous Local Product
Issued by NWS Hastings, NE

Home | Current Version | Previous Version | Text Only | Print | Product List | Glossary Off
Versions: 1 2 3 4 5 6 7 8 9 10 11 12 13 14 15 16 17 18 19 20 21 22 23 24 25 26 27 28 29 30 31 32 33 34 35 36 37 38 39 40 41 42 43 44 45 46 47 48 49 50

000
AXUS43 KGID 271302
MISGRI

GID CWA HOURLY WEATHER ROUNDUP
NATIONAL WEATHER SERVICE HASTINGS NE
800 AM CDT WED JUL 27 2016

NOTE: "FAIR" INDICATES FEW OR NO CLOUDS BELOW 12,000 FEET WITH NO
SIGNIFICANT WEATHER AND/OR OBSTRUCTIONS TO VISIBILITY.

...SOUTH CENTRAL NEBRASKA...

CITY           SKY/WX    TMP DP  RH WIND       PRES   REMARKS
GRAND ISLAND   SUNNY     68  61  78 W14       30.00R
HASTINGS       CLOUDY    64  61  90 W7        30.04R
KEARNEY        SUNNY     64   9  11 NW9       30.04R
ORD            SUNNY     64  59  83 NW9       30.01R
YORK           MOSUNNY   68  63  83 NW8       30.02R
AURORA         MOSUNNY   67  63  86 SW10      29.99R
LEXINGTON      SUNNY     64  61  90 W7        30.06S
HOLDREGE       MOSUNNY   63  61  92 NW5       30.06R
HEBRON         MOSUNNY   71  66  84 W3        29.99R

...NEBRASKA PANHANDLE...

CITY           SKY/WX    TMP DP  RH WIND       PRES   REMARKS
CHADRON        LGT RAIN  66  62  87 W18G26    30.22R FOG
ALLIANCE       CLOUDY    62  58  86 SW7       30.18R
SCOTTSBLUFF    LGT RAIN  64  59  83 NW8       30.24R
SIDNEY         CLOUDY    60  57  89 E10       30.19R

...WESTERN AND NORTH CENTRAL NEBRASKA...

CITY           SKY/WX    TMP DP  RH WIND       PRES   REMARKS
VALENTINE      CLOUDY    63  58  83 MISG      30.05F
AINSWORTH      CLOUDY    63  61  94 W7        30.06S
ONEILL         SUNNY     66  61  85 NW5       30.07R
BROKEN BOW     SUNNY     64  60  87 CALM      30.05R
IMPERIAL       MOSUNNY   63  58  83 N8        30.13S
NORTH PLATTE   CLOUDY    63  60  90 SW12      30.06F
MCCOOK         SUNNY     64  59  83 NW6       30.08S

...EASTERN NEBRASKA...

CITY           SKY/WX    TMP DP  RH WIND       PRES   REMARKS
NORFOLK        CLOUDY    69  66  90 N8        30.00R
SO SIOUX CITY  CLOUDY    73  67  81 E7        29.99R
TEKAMAH        PTSUNNY   71  67  87 CALM      29.97R
COLUMBUS       MOSUNNY   70  59  68 CALM      30.00R
ALBION         SUNNY     66  64  93 NW13      30.03R
OMAHA EPPLEY   CLOUDY    74  66  76 VRB5      29.96R
OFFUTT AFB     MOSUNNY   73  69  88 SE7       29.95R
MILLARD        CLOUDY    72  68  86 CALM      29.95R
LINCOLN        CLOUDY    75  67  76 S7        29.96R
NEBRASKA CITY  SUNNY     72  71  99 S6        29.96S
BEATRICE       SUNNY     72  66  82 S5        29.96R
FALLS CITY     CLOUDY    71  68  90 SE7       29.95F

...NORTHERN KANSAS...

CITY           SKY/WX    TMP DP  RH WIND       PRES   REMARKS
GOODLAND       SUNNY     63  60  90 SE6       30.10F
HILL CITY      CLOUDY    69  60  73 W3        30.03S
NORTON         SUNNY     64  57  77 W7        30.04R
SMITH CENTER   SUNNY     64  61  88 NW3       30.02R
BELOIT         SUNNY     72  66  83 SW3       29.99R
HAYS           CLOUDY    72  57  60 NW7       30.01F
RUSSELL        CLOUDY    73  70  90 S15       29.94F
CONCORDIA      CLOUDY    73  67  81 S8        29.97R
SALINA         PTSUNNY   74  69  85 S12       29.95F
TOPEKA         SUNNY     72  68  87 SE7       29.96F



USA.gov is the U.S. government's official web portal to all federal, state and local government web resources and services.